Location: Erlenbrunn
(49.1717°N, 7.6142°E)
Time: 11:58:37
(UTC+00:00)

Cosmos 2297 - Pass Details

Date: 25 November 2020
Orbit: 834 x 860 km, 71.0° (Epoch: 25 January)

Event Time Altitude Azimuth Distance (km) Brightness Sun altitude
Rises 16:22:23 0° 334° (NNW) 3,407 6.9 -7.3°
Reaches altitude 10° 16:25:03 10° 344° (NNW) 2,472 6.1 -7.7°
Maximum altitude 16:30:13 34° 49° (NE) 1,358 4.3 -8.5°
Drops below altitude 10° 16:35:22 10° 114° (ESE) 2,476 5.7 -9.2°
Sets 16:38:02 0° 123° (ESE) 3,412 6.5 -9.6°
